Weather History for PAFA - October, 2013

Change the Weather History Date:

Thursday, October 31, 2013

  Actual Average Record
Temperature  
Mean Temperature 24 °F 11 °F  
Max Temperature 29 °F 19 °F 50 °F (1954)
Min Temperature 18 °F 4 °F -27 °F (1975)
Degree Days  
Heating Degree Days 41 54  
Month to date heating degree days 886 1265  
Since 1 July heating degree days 1775 2259  
Cooling Degree Days 0 0  
Month to date cooling degree days 0 0  
Year to date cooling degree days 226 61  
Moisture  
Dew Point 21 °F    
Average Humidity 87    
Maximum Humidity 89    
Minimum Humidity 81    
Precipitation  
Precipitation 0.03 in 0.02 in 0.16 in (1917)
Month to date precipitation 0.59 0.83  
Year to date precipitation 8.13 9.50  
Snow  
Snow 0.60 in 0.40 in 2.10 in (2004)
Month to date snowfall 0.7 10.8  
Since 1 July snowfall 1.4 12.6  
Since 1 September snowfall 1.4 12.6  
Snow Depth 1.00 in    
Sea Level Pressure  
Sea Level Pressure 29.47 in    
Wind  
Wind Speed 1 mph (ENE)    
Max Wind Speed 5 mph    
Max Gust Speed -    
Visibility 5 miles    
Events Fog , Snow    
T = Trace of Precipitation, MM = Missing Value Source: NWS Daily Summary

Daily Weather History Graph

Daily Weather History Graph

Search for Another Location

Airport or City:

Trip Planner

Search our weather history database for the weather conditions in past years. The results will help you decide how hot, cold, wet, or windy it might be!

Date:

Astronomy

Oct. 31, 2013 Rise Set
Actual Time 9:37 AM AKDT 5:31 PM AKDT
Civil Twilight 8:42 AM AKDT 6:26 PM AKDT
Nautical Twilight 7:43 AM AKDT 7:25 PM AKDT
Astronomical Twilight 6:47 AM AKDT 8:21 PM AKDT
Moon 5:36 AM AKDT (10/31) 4:45 PM AKDT (10/31)
Length of Visible Light 9h 44m
Length of Day
7h 54m
Waning Crescent, 9% of the Moon is Illuminated
Oct 31
Waning Crescent
Nov 3
New
Nov 9
First Quarter
Nov 17
Full
Nov 25
Last Quarter

Hourly Weather History & Observations

Time (AKDT) Temp. Windchill Dew Point Humidity Pressure Visibility Wind Dir Wind Speed Gust Speed Precip Events Conditions
12:53 AM 26.1 °F 21.9 °F 21.0 °F 81% 29.28 in 10.0 mi NE 3.5 mph - N/A   Scattered Clouds
1:53 AM 24.1 °F - 19.9 °F 84% 29.30 in 10.0 mi Calm Calm - N/A   Scattered Clouds
2:53 AM 24.1 °F - 19.9 °F 84% 29.31 in 10.0 mi Calm Calm - N/A   Scattered Clouds
3:53 AM 19.9 °F 14.9 °F 17.1 °F 89% 29.33 in 10.0 mi South 3.5 mph - N/A Fog Patches of Fog
3:59 AM 19.9 °F - 17.1 °F 89% 29.31 in 5.0 mi Calm Calm - N/A   Mostly Cloudy
4:15 AM 19.9 °F - 17.1 °F 89% 29.31 in 1.5 mi Calm Calm - N/A   Mostly Cloudy
4:23 AM 19.9 °F - 17.1 °F 89% 29.31 in 0.8 mi Calm Calm - N/A   Mostly Cloudy
4:35 AM 19.9 °F - 17.1 °F 89% 29.32 in 0.8 mi Calm Calm - N/A   Mostly Cloudy
4:53 AM 19.0 °F - 16.0 °F 88% 29.34 in 0.5 mi Calm Calm - N/A Fog Light Freezing Fog
5:53 AM 19.9 °F 14.9 °F 17.1 °F 89% 29.36 in 2.5 mi SSE 3.5 mph - N/A   Mostly Cloudy
6:13 AM 19.0 °F - 15.1 °F 85% 29.34 in 3.0 mi Calm Calm - N/A   Mostly Cloudy
6:53 AM 19.9 °F - 16.0 °F 85% 29.38 in 4.0 mi Calm Calm - N/A   Mostly Cloudy
7:53 AM 21.9 °F 15.7 °F 18.0 °F 85% 29.39 in 6.0 mi NNE 4.6 mph - N/A   Mostly Cloudy
8:45 AM 23.0 °F - 19.9 °F 88% 29.38 in 7.0 mi Calm Calm - N/A   Mostly Cloudy
8:53 AM 23.0 °F - 19.0 °F 85% 29.41 in 7.0 mi Calm Calm - N/A   Mostly Cloudy
9:53 AM 23.0 °F 18.4 °F 19.9 °F 88% 29.43 in 7.0 mi NE 3.5 mph - N/A   Overcast
10:53 AM 24.1 °F - 21.0 °F 88% 29.45 in 7.0 mi Calm Calm - N/A   Mostly Cloudy
11:53 AM 25.0 °F - 21.9 °F 88% 29.47 in 6.0 mi Calm Calm - N/A Snow Light Snow
12:00 PM 25.0 °F - 21.9 °F 88% 29.44 in 1.5 mi Calm Calm - N/A Snow Light Snow
12:53 PM 26.1 °F - 21.9 °F 84% 29.49 in 1.5 mi Calm Calm - N/A Snow Light Snow
1:13 PM 26.1 °F - 21.9 °F 84% 29.47 in 5.0 mi Calm Calm - N/A Snow Light Snow
1:53 PM 26.1 °F - 23.0 °F 88% 29.51 in 6.0 mi Calm Calm - N/A Snow Light Snow
2:53 PM 27.0 °F - 23.0 °F 85% 29.52 in 7.0 mi Calm Calm - N/A Snow Light Snow
3:45 PM 27.0 °F - 23.0 °F 85% 29.51 in 6.0 mi Calm Calm - N/A Snow Light Snow
3:53 PM 27.0 °F - 24.1 °F 89% 29.54 in 6.0 mi Calm Calm - N/A Snow Light Snow
4:53 PM 28.0 °F - 24.1 °F 85% 29.55 in 6.0 mi Calm Calm - N/A Snow Light Snow
5:53 PM 28.0 °F - 24.1 °F 85% 29.57 in 4.0 mi Calm Calm - N/A Snow Light Snow
6:53 PM 28.0 °F - 25.0 °F 88% 29.58 in 5.0 mi Calm Calm - N/A Snow Light Snow
7:53 PM 28.0 °F - 25.0 °F 88% 29.61 in 3.0 mi Calm Calm - N/A Snow Light Snow
8:17 PM 28.0 °F - 25.0 °F 88% 29.58 in 2.0 mi Calm Calm - N/A Snow Light Snow
8:53 PM 28.0 °F - 25.0 °F 88% 29.62 in 2.0 mi Calm Calm - N/A Snow Light Snow
9:53 PM 28.0 °F - 25.0 °F 88% 29.64 in 2.0 mi Calm Calm - N/A Snow Light Snow
10:00 PM 28.0 °F - 25.0 °F 88% 29.62 in 2.5 mi Calm Calm - N/A Snow Light Snow
10:20 PM 28.0 °F - 25.0 °F 88% 29.62 in 2.5 mi Calm Calm - N/A Snow Light Snow
10:53 PM 28.0 °F - 25.0 °F 88% 29.68 in 2.5 mi Calm Calm - N/A Snow Light Snow
11:53 PM 28.0 °F - 25.0 °F 88% 29.70 in 4.0 mi Calm Calm - N/A Snow Light Snow